Hourly Data Report for December 28, 2016

TORONTO CITY
ONTARIO

43°40'00.000" N
79°24'00.000" W
112.50 m
6158355
71508
XTO

Download Data

Hourly Data (December 2016)
Hourly Data Report for December 28, 2016
TIME
LST
Temp Definition
°C
Dew Point Definition
°C
Rel Hum Definition
%
Precip. Amount Definition
mm

Wind Dir Definition
10's deg

Wind Spd Definition
km/h
Visibility Definition
km
Stn Press Definition
kPa
Hmdx Definition


Wind Chill Definition


Weather Definition


00:00 -1.8 -5.2 77 0.0 LegendMM LegendMM   100.24     LegendNANA
01:00 -2.0 -5.9 75 0.0 LegendMM LegendMM   100.25     LegendNANA
02:00 -2.1 -6.2 74 0.0 LegendMM LegendMM   100.31     LegendNANA
03:00 -1.8 -6.5 70 0.0 LegendMM LegendMM   100.39     LegendNANA
04:00 -2.0 -6.5 72 0.0 LegendMM LegendMM   100.43     LegendNANA
05:00 -2.2 -6.2 74 0.0 LegendMM LegendMM   100.49     LegendNANA
06:00 -2.2 -6.2 74 0.0 LegendMM LegendMM   100.55     LegendNANA
07:00 -2.1 -6.1 74 0.0 LegendMM LegendMM   100.60     LegendNANA
08:00 -2.3 -6.3 74 0.0 LegendMM LegendMM   100.63     LegendNANA
09:00 -1.6 -6.2 71 0.0 LegendMM LegendMM   100.66     LegendNANA
10:00 -0.4 -6.5 63 0.0 LegendMM LegendMM   100.68     LegendNANA
11:00 -0.9 -6.3 67 0.0 LegendMM LegendMM   100.69     LegendNANA
12:00 -1.1 -6.5 67 0.0 LegendMM LegendMM   100.60     LegendNANA
13:00 -1.0 -6.7 65 0.0 LegendMM LegendMM   100.56     LegendNANA
14:00 -1.1 -6.7 65 0.0 LegendMM LegendMM   100.55     LegendNANA
15:00 -1.0 -7.4 62 0.0 LegendMM LegendMM   100.47     LegendNANA
16:00 -1.0 -7.5 62 0.0 LegendMM LegendMM   100.46     LegendNANA
17:00 -1.2 -7.5 62 0.0 LegendMM LegendMM   100.43     LegendNANA
18:00 -0.8 -6.4 65 0.0 LegendMM LegendMM   100.42     LegendNANA
19:00 -0.4 -5.2 70 0.0 LegendMM LegendMM   100.33     LegendNANA
20:00 0.4 -4.1 72 0.0 LegendMM LegendMM   100.25     LegendNANA
21:00 0.6 -2.8 78 0.0 LegendMM LegendMM   100.06     LegendNANA
22:00 1.1 -2.4 78 0.0 LegendMM LegendMM   99.89     LegendNANA
23:00 1.3 -2.9 74 0.0 LegendMM LegendMM   99.82     LegendNANA

Notes on Data Quality.

Legend

  • E = Estimated
  • M = Missing
  • NA = Not Available*
  • [empty] = Indicates an unobserved value
Date modified: